Tampa Executive, FL

6:59 PM EST on December 09, 2019 (GMT -0500)
Vandenberg

Weather History for KVDF - November, 2019

Change the Weather History Date:

Tuesday, November 19, 2019

  Actual Average (KTPA) Record (KTPA)
Temperature  
Mean Temperature 58 °F -  
Max Temperature 69 °F 75 °F 88 °F (1988)
Min Temperature 46 °F 58 °F 38 °F (1951)
Degree Days  
Heating Degree Days 6    
Growing Degree Days 8 (Base 50)    
Moisture  
Dew Point 51 °F    
Average Humidity 85    
Maximum Humidity 100    
Minimum Humidity 46    
Precipitation  
Precipitation 0.00 in - - ()
Sea Level Pressure  
Sea Level Pressure 29.97 in    
Wind  
Wind Speed 2 mph ()    
Max Wind Speed 12 mph    
Max Gust Speed 18 mph    
Visibility 6.9 miles    
Events      
Averages and records for this station are not official NWS values.
T = Trace of Precipitation, MM = Missing Value Source: Averaged Metar Reports

Daily Weather History Graph

Daily Weather History Graph

Search for Another Location

Airport or City:

Astronomy

Nov. 19, 2019 Rise Set
Actual Time 6:53 AM EST 5:35 PM EST
Civil Twilight 6:28 AM EST 6:00 PM EST
Nautical Twilight 6:00 AM EST 6:28 PM EST
Astronomical Twilight 5:32 AM EST 6:56 PM EST
Moon No Moon Rise 1:06 PM EST (11/19)
Length of Visible Light 11h 31m
Length of Day
10h 41m
Waning Gibbous, 52% of the Moon is Illuminated
Nov 19
Waning Gibbous
Nov 19
Last Quarter
Nov 26
New
Dec 4
First Quarter
Dec 12
Full

Hourly Weather History & Observations

Time (EST) Temp. Dew Point Humidity Pressure Visibility Wind Dir Wind Speed Gust Speed Precip Events Conditions
12:15 AM 51.8 °F 51.8 °F 100% 29.89 in 4.0 mi Calm Calm - N/A   Clear
12:35 AM 51.8 °F 51.8 °F 100% 29.89 in 2.5 mi Calm Calm - N/A   Clear
12:55 AM 51.8 °F 51.8 °F 100% 29.89 in 5.0 mi Calm Calm - N/A   Clear
1:15 AM 51.8 °F 51.8 °F 100% 29.89 in 5.0 mi Calm Calm - N/A   Clear
1:35 AM 51.8 °F 51.8 °F 100% 29.89 in 5.0 mi Calm Calm - N/A   Clear
1:55 AM 51.8 °F 51.8 °F 100% 29.89 in 5.0 mi Calm Calm - N/A   Clear
2:15 AM 51.8 °F 51.8 °F 100% 29.89 in 4.0 mi Calm Calm - N/A   Mostly Cloudy
2:35 AM 53.6 °F 53.6 °F 100% 29.89 in 5.0 mi Calm Calm - N/A   Overcast
2:55 AM 53.6 °F 53.6 °F 100% 29.89 in 5.0 mi Calm Calm - N/A   Overcast
3:15 AM 53.6 °F 53.6 °F 100% 29.88 in 5.0 mi Calm Calm - N/A   Mostly Cloudy
3:35 AM 53.6 °F 53.6 °F 100% 29.88 in 5.0 mi Calm Calm - N/A   Scattered Clouds
3:55 AM 51.8 °F 51.8 °F 100% 29.89 in 3.0 mi Calm Calm - N/A   Clear
4:15 AM 51.8 °F 51.8 °F 100% 29.89 in 4.0 mi Calm Calm - N/A   Scattered Clouds
4:35 AM 51.8 °F 51.8 °F 100% 29.89 in 4.0 mi Calm Calm - N/A   Scattered Clouds
4:55 AM 51.8 °F 51.8 °F 100% 29.89 in 3.0 mi Calm Calm - N/A   Mostly Cloudy
5:15 AM 51.8 °F 51.8 °F 100% 29.89 in 7.0 mi Calm Calm - N/A   Mostly Cloudy
5:35 AM 51.8 °F 51.8 °F 100% 29.90 in 3.0 mi Calm Calm - N/A   Clear
5:55 AM 51.8 °F 51.8 °F 100% 29.91 in 2.0 mi Calm Calm - N/A   Scattered Clouds
6:15 AM 51.8 °F 51.8 °F 100% 29.92 in 3.0 mi Calm Calm - N/A   Mostly Cloudy
6:35 AM 51.8 °F 51.8 °F 100% 29.93 in 4.0 mi Calm Calm - N/A   Mostly Cloudy
6:55 AM 51.8 °F 51.8 °F 100% 29.94 in 3.0 mi Calm Calm - N/A   Mostly Cloudy
7:15 AM 51.8 °F 51.8 °F 100% 29.95 in 4.0 mi Calm Calm - N/A   Mostly Cloudy
7:55 AM 55.4 °F 55.4 °F 100% 29.95 in 4.0 mi Calm Calm - N/A   Scattered Clouds
8:15 AM 59.0 °F 59.0 °F 100% 29.96 in 5.0 mi Calm Calm - N/A   Mostly Cloudy
8:35 AM 59.0 °F 59.0 °F 100% 29.97 in 7.0 mi North 4.6 mph - N/A   Overcast
8:55 AM 59.0 °F 57.2 °F 94% 29.97 in 10.0 mi NNE 3.5 mph - N/A   Overcast
9:15 AM 60.8 °F 55.4 °F 82% 29.98 in 10.0 mi North 6.9 mph - N/A   Scattered Clouds
9:35 AM 60.8 °F 50.0 °F 68% 29.99 in 10.0 mi North 8.1 mph - N/A   Mostly Cloudy
9:55 AM 64.4 °F 50.0 °F 59% 29.99 in 10.0 mi North 6.9 mph - N/A   Mostly Cloudy
10:15 AM 64.4 °F 46.4 °F 52% 30.00 in 10.0 mi North 10.4 mph - N/A   Mostly Cloudy
10:35 AM 64.4 °F 48.2 °F 56% 30.00 in 10.0 mi North 5.8 mph - N/A   Scattered Clouds
10:55 AM 66.2 °F 46.4 °F 49% 30.01 in 10.0 mi North 8.1 mph 16.1 mph N/A   Scattered Clouds
11:15 AM 68.0 °F 50.0 °F 52% 30.01 in 10.0 mi North 6.9 mph - N/A   Scattered Clouds
11:35 AM 68.0 °F 50.0 °F 52% 30.01 in 10.0 mi North 8.1 mph - N/A   Mostly Cloudy
11:55 AM 68.0 °F 50.0 °F 52% 30.01 in 10.0 mi North 11.5 mph 16.1 mph N/A   Mostly Cloudy
12:15 PM 68.0 °F 50.0 °F 52% 29.99 in 10.0 mi NNW 8.1 mph 17.3 mph N/A   Scattered Clouds
12:55 PM 69.8 °F 48.2 °F 46% 29.98 in 10.0 mi NW 10.4 mph 17.3 mph N/A   Clear
1:15 PM 69.8 °F 50.0 °F 49% 29.97 in 10.0 mi NW 8.1 mph 16.1 mph N/A   Clear
1:55 PM 69.8 °F 50.0 °F 49% 29.95 in 10.0 mi NNW 6.9 mph - N/A   Clear
2:15 PM 69.8 °F 51.8 °F 53% 29.95 in 10.0 mi North 9.2 mph 18.4 mph N/A   Clear
2:35 PM 69.8 °F 50.0 °F 49% 29.96 in 10.0 mi North 6.9 mph - N/A   Clear
2:55 PM 69.8 °F 51.8 °F 53% 29.96 in 10.0 mi NNW 9.2 mph - N/A   Clear
3:15 PM 69.8 °F 51.8 °F 53% 29.96 in 10.0 mi NNW 8.1 mph - N/A   Clear
3:55 PM 69.8 °F 51.8 °F 53% 29.98 in 10.0 mi NW 8.1 mph - N/A   Clear
4:15 PM 68.0 °F 51.8 °F 56% 29.99 in 10.0 mi NW 8.1 mph - N/A   Clear
5:15 PM 64.4 °F 51.8 °F 64% 30.01 in 10.0 mi Calm Calm - N/A   Clear
5:35 PM 62.6 °F 51.8 °F 68% 30.01 in 10.0 mi NW 3.5 mph - N/A   Clear
6:15 PM 57.2 °F 51.8 °F 82% 30.03 in 10.0 mi Calm Calm - N/A   Clear
6:35 PM 53.6 °F 51.8 °F 94% 30.03 in 10.0 mi Calm Calm - N/A   Clear
6:55 PM 53.6 °F 51.8 °F 94% 30.03 in 10.0 mi Calm Calm - N/A   Clear
7:15 PM 51.8 °F 51.8 °F 100% 30.04 in 10.0 mi Calm Calm - N/A   Clear
7:35 PM 51.8 °F 51.8 °F 100% 30.04 in 10.0 mi Calm Calm - N/A   Clear
7:55 PM 51.8 °F 51.8 °F 100% 30.05 in 10.0 mi Calm Calm - N/A   Clear
8:15 PM 51.8 °F 51.8 °F 100% 30.06 in 10.0 mi Calm Calm - N/A   Clear
8:35 PM 51.8 °F 51.8 °F 100% 30.06 in 7.0 mi Calm Calm - N/A   Clear
9:15 PM 50.0 °F 50.0 °F 100% 30.06 in 4.0 mi Calm Calm - N/A   Clear
9:35 PM 50.0 °F 50.0 °F 100% 30.07 in 5.0 mi Calm Calm - N/A   Clear
9:55 PM 50.0 °F 50.0 °F 100% 30.07 in 3.0 mi Calm Calm - N/A   Clear
10:15 PM 48.2 °F 48.2 °F 100% 30.07 in 5.0 mi Calm Calm - N/A   Clear
10:35 PM 48.2 °F 48.2 °F 100% 30.07 in 4.0 mi Calm Calm - N/A   Clear
10:55 PM 48.2 °F 48.2 °F 100% 30.07 in 4.0 mi Calm Calm - N/A   Clear
11:15 PM 48.2 °F 48.2 °F 100% 30.07 in 4.0 mi Calm Calm - N/A   Clear
11:55 PM 46.4 °F 46.4 °F 100% 30.06 in 3.0 mi Calm Calm - N/A   Clear